#timestamp,LO_Frequency,Hit,StdDev 
1548414015.1,286046999.0,N
1548414016.0,286046999.0,N
1548414035.8,286047000.9,N
1548414055.6,286046998.2,N
1548414075.5,286046999.3,N
1548414095.3,286046998.5,N
1548414115.1,286047000.2,N
1548414135.9,286046998.3,N
1548414155.7,286047002.4,N
1548414175.6,286047000.0,N
1548414195.4,286047002.1,N
1548414215.2,286047001.9,N
1548414235.1,286047002.8,N
1548414236.0,286047002.8,N
1548414255.8,286047002.4,N
1548414275.6,286047000.8,N
1548414295.5,286046999.9,N
1548414315.3,286047001.5,N
1548414335.2,286047001.3,N
1548414355.9,286047001.5,N
1548414375.7,286047004.3,N
1548414395.6,286047004.4,N
1548414415.4,286047003.7,N
1548414435.2,286047003.2,N
1548414455.1,286047004.2,N
1548414456.0,286047004.2,N
1548414475.8,286047001.6,N
1548414495.7,286047004.4,N
1548414515.5,286047003.0,N
1548414535.3,286047003.7,N
1548414555.2,286047002.1,N
1548414575.0,286047001.8,N
1548414575.9,286047001.8,N
1548414595.7,286047004.0,N
1548414615.6,286047004.2,N
1548414635.4,286047001.7,N
1548414655.3,286047001.6,N
1548414675.1,286047003.6,N
1548414676.0,286047003.6,N
1548414695.8,286047005.1,Y
1548414715.7,286047000.1,P
1548414735.5,286046999.8,N
1548414755.4,286047000.1,N
1548414775.2,286047001.9,N
1548414795.0,286047000.6,N
1548414815.1,286046998.1,N
1548414816.0,286046998.1,N
1548414835.8,286047001.0,N
1548414855.6,286047002.2,N
1548414875.5,286047001.9,N
1548414895.3,286046999.7,N
1548414915.1,286047002.0,N
1548414935.9,286047002.6,N
1548414955.7,286047002.4,N
1548414975.6,286046999.7,N
1548414995.4,286046998.9,N
1548415015.2,286046998.4,N
1548415035.1,286047000.7,N
1548415036.0,286047000.7,N
1548415055.8,286047000.0,N
1548415075.7,286046999.9,N
1548415095.5,286047000.2,N
1548415115.3,286047000.1,N
1548415135.2,286046998.4,N
1548415155.0,286047000.4,N
1548415155.9,286047000.4,N
1548415175.8,286047001.2,N
1548415195.6,286046999.4,N
1548415215.4,286046999.1,N
1548415235.3,286046996.5,N
1548415255.1,286047000.5,N
1548415275.8,286047001.1,N
1548415295.7,286046999.3,N
1548415315.5,286046999.6,N
1548415335.4,286046999.1,N
1548415355.2,286046997.4,N
1548415375.0,286046998.7,N
1548415375.9,286046998.7,N
1548415395.8,286046999.6,N
1548415415.6,286046999.0,N
1548415435.4,286046997.2,N
1548415455.3,286046999.1,N
1548415475.1,286046996.9,N
1548415495.9,286046999.5,N
1548415515.7,286046998.8,N
1548415535.5,286046997.1,N
1548415555.4,286046997.6,N
1548415575.2,286046997.6,N
1548415595.0,286046995.6,Y
1548415595.9,286046995.6,P
1548415615.8,286046997.2,N
1548415635.6,286046998.2,N
1548415655.5,286046998.3,N
1548415675.3,286046996.7,N
1548415695.1,286046997.6,N
1548415715.9,286046998.7,N
1548415735.7,286046998.0,N
1548415755.5,286046998.0,N
1548415775.4,286046998.5,N
1548415795.2,286047000.3,N
1548415815.1,286046999.7,N
1548415816.0,286046999.7,N
1548415835.8,286047000.0,N
1548415855.6,286047000.0,N
1548415875.5,286047002.8,N
1548415895.3,286047000.1,N
1548415915.1,286046999.0,N
1548415935.9,286046998.9,N
1548415955.7,286046998.7,N
1548415975.6,286047000.8,N
1548415995.4,286047000.9,N
1548416015.2,286047000.6,N
1548416035.1,286047002.6,N
1548416036.0,286047002.6,N
1548416055.8,286047002.7,N
1548416075.6,286046999.9,N
1548416095.5,286047000.7,N
1548416115.3,286046998.1,N
1548416135.2,286046997.1,N
1548416155.9,286046998.8,N
1548416175.7,286046998.5,N
1548416195.6,286047001.2,N
1548416215.4,286047002.0,N
1548416235.2,286047000.0,N
1548416255.1,286046998.5,N
1548416256.0,286046998.5,N
1548416275.8,286047000.4,N
1548416295.7,286046999.7,N
1548416315.5,286046999.7,N
1548416335.3,286047001.9,N
1548416355.2,286047002.1,N
1548416375.0,286047002.2,N
1548416375.9,286047002.2,N
1548416395.7,286046999.8,N
1548416415.6,286047002.3,N
1548416435.4,286047001.5,N
1548416455.3,286047001.3,N
1548416475.1,286047001.8,N
1548416476.0,286047001.8,N
1548416495.8,286047002.1,N
1548416515.7,286047002.4,N
1548416535.5,286047001.9,N
1548416555.3,286047003.8,N
1548416575.2,286047001.4,N
1548416595.0,286047002.1,N
1548416595.9,286047002.1,N
1548416615.8,286047002.7,N
1548416635.6,286047000.1,N
1548416655.4,286047000.1,N
1548416675.3,286046999.8,N
1548416695.1,286047000.9,N
1548416715.9,286047001.2,N
1548416735.7,286046999.0,N
1548416755.5,286046999.5,N
1548416775.4,286046999.1,N
1548416795.2,286046999.6,N
1548416815.0,286046997.4,N
1548416815.9,286046997.4,N
1548416835.8,286046996.8,N
1548416855.6,286046997.9,N
1548416875.5,286046997.4,N
1548416895.3,286046996.7,N
1548416915.1,286046996.9,N
1548416935.9,286046997.7,N
1548416955.7,286046998.0,N
1548416975.5,286046997.2,N
1548416995.4,286046995.9,N
1548417015.2,286046996.2,N
1548417035.1,286046995.5,N
1548417036.0,286046995.5,N
1548417055.8,286046998.0,N
1548417075.6,286046995.5,N
1548417095.5,286046995.8,N
1548417115.3,286046997.5,N
1548417135.1,286046995.1,N
1548417155.9,286046996.2,N
1548417175.7,286046993.8,Y
1548417195.6,286046997.2,P
1548417215.4,286046995.4,P
1548417235.2,286046996.8,P
1548417255.1,286046995.1,Y
1548417256.0,286046995.1,P
1548417275.8,286046998.5,N
1548417295.7,286046998.6,N
1548417315.5,286047000.6,N
1548417335.3,286047001.1,N
1548417355.2,286046999.4,N
1548417375.9,286046998.4,N
1548417395.7,286046999.0,N
1548417415.6,286046996.9,N
1548417435.4,286046998.0,N
1548417455.3,286046997.0,N
1548417475.1,286046996.7,N
1548417476.0,286046996.7,N
1548417495.8,286046997.0,N
1548417515.7,286046996.8,N
1548417535.5,286046998.0,N
1548417555.3,286046997.3,N
1548417575.2,286046996.7,N
1548417595.0,286046997.4,N
1548417595.9,286046997.4,N
